[[{"header":{"parameterUnit":"m.s-1","parameterCategory":1,"la1":30.2991,"la2":30.254,"lo1":-89.0895,"lo2":-89.0444,"dy":0.0017,"dx":0.0017,"nx":28,"ny":28,"refTime":"2023-04-27T21:00:00:Z","depth":0,"parameterNumber":2,"parameterNumberName":"U-component_of_WINDS"},"data":[0,0,0,0,0,0,0,0,0,0,0,0,0,0,0,0,0,0,0,0,0,0,0,0,0,0,0,0,0,0,0,0,0,0,0,0,0,0,0,0,0,0,0,0,0,0,0,0,0,0,0,0,0,0,0,0,0,0,-0.6673,-0.6673,0,-0.6671,-0.6671,-0.6671,-0.6679,-0.668,-0.668,-0.668,-0.6678,-0.6678,-0.6678,0,0,0,0,0,0,0,0,0,0,0,0,0,-0.6685,-0.6685,-0.6673,-0.6673,-0.6673,-0.6671,-0.6671,-0.6671,-0.6679,-0.668,-0.668,-0.668,-0.6678,-0.6678,-0.6678,0,0,0,0,0,0,0,0,0,0,0,0,0,-0.6681,-0.6685,-0.6673,-0.6677,-0.6677,-0.6671,-0.6671,-0.6671,-0.6679,-0.668,-0.668,-0.668,-0.6679,-0.6678,-0.6678,-0.6668,0,0,-0.6676,-0.6676,0,0,0,0,0,0,0,0,-0.6682,-0.6681,-0.6676,-0.6677,-0.6677,-0.6676,-0.6675,-0.667,-0.6679,-0.6678,-0.668,-0.668,-0.6677,-0.6677,-0.6676,-0.6668,-0.6667,-0.6676,-0.6676,-0.6676,-0.6676,0,0,0,0,0,0,0,-0.6682,-0.6681,-0.6672,-0.6676,-0.6677,-0.6679,-0.6679,-0.6674,-0.6676,-0.6679,-0.6679,-0.6679,-0.6677,-0.6676,-0.6676,-0.6667,-0.6676,-0.6676,-0.6676,-0.6676,-0.6652,-0.6651,0,0,0,0,0,0,-0.6682,-0.6681,-0.6672,-0.6672,-0.668,-0.6679,-0.6678,-0.6676,-0.6676,-0.6676,-0.6678,-0.6679,-0.6677,-0.6676,-0.6676,-0.6664,-0.6676,-0.6676,-0.6675,-0.6652,-0.6651,-0.6651,0,0,0,0,0,0,-0.6682,-0.6681,-0.6672,-0.6677,-0.6676,-0.6678,-0.6675,-0.6675,-0.6674,-0.6676,-0.6676,-0.6677,-0.6677,-0.6676,-0.667,-0.6664,-0.6675,-0.6675,-0.6652,-0.6652,-0.6651,-0.6641,0,0,0,0,0,0,-0.6682,-0.6681,-0.6677,-0.6677,-0.6676,-0.6666,-0.6675,-0.6675,-0.6673,-0.6674,-0.6674,-0.6674,-0.6677,-0.667,-0.6669,-0.6664,-0.6675,-0.6653,-0.6652,-0.6651,-0.6642,-0.664,-0.6639,0,0,0,0,0,-0.6682,-0.6674,-0.6676,-0.6675,-0.6671,-0.6666,-0.6665,-0.6668,-0.6673,-0.6669,-0.667,-0.6674,-0.6665,-0.6669,-0.6668,-0.6663,-0.6653,-0.6652,-0.6651,-0.6642,-0.664,-0.6639,0,0,0,0,0,0,-0.6673,-0.6674,-0.6677,-0.6668,-0.6667,-0.6667,-0.6662,-0.6666,-0.6663,-0.6664,-0.6669,-0.6668,-0.6661,-0.6661,-0.6666,-0.6653,-0.666,-0.6659,-0.6653,-0.6652,-0.665,-0.665,-0.6674,0,0,0,0,0,-0.667,-0.6666,-0.6667,-0.6659,-0.6658,-0.666,-0.6658,-0.6661,-0.666,-0.6659,-0.666,-0.6659,-0.6656,-0.6654,-0.6651,-0.6642,-0.6642,-0.6638,-0.6636,-0.6635,-0.6634,-0.6629,-0.6627,-0.6648,-0.6648,-0.6648,0,0,-0.6663,-0.6663,-0.666,-0.6657,-0.6656,-0.6652,-0.666,-0.6655,-0.6652,-0.6659,-0.6652,-0.6653,-0.6652,-0.6644,-0.6641,-0.6644,-0.6628,-0.6634,-0.6633,-0.6632,-0.6628,-0.6626,-0.6625,-0.6648,-0.6648,-0.6648,0,0,-0.665,-0.6649,-0.6642,-0.6642,-0.6641,-0.6642,-0.6641,-0.6641,-0.6641,-0.6635,-0.664,-0.6637,-0.6631,-0.6631,-0.663,-0.6616,-0.662,-0.6615,-0.6607,-0.6603,-0.6601,-0.66,-0.6595,-0.6593,-0.6614,-0.6614,-0.6614,0,-0.6642,-0.6635,-0.6639,-0.6633,-0.6632,-0.6638,-0.6631,-0.6631,-0.6629,-0.6628,-0.6632,-0.6625,-0.6625,-0.6617,-0.6614,-0.6613,-0.6611,-0.6615,-0.6601,-0.6599,-0.6598,-0.6594,-0.6592,-0.6613,-0.6614,-0.6614,-0.6614,0,-0.6626,-0.6621,-0.6616,-0.6614,-0.6612,-0.6606,-0.6609,-0.6607,-0.661,-0.6611,-0.6605,-0.6605,-0.6602,-0.6601,-0.6603,-0.6594,-0.6596,-0.66,-0.6607,-0.6596,-0.6592,-0.659,-0.6613,-0.6613,-0.6613,-0.6613,0,0,-0.6606,-0.6606,-0.6604,-0.6603,-0.6603,-0.66,-0.6594,-0.6592,-0.659,-0.6588,-0.6584,-0.658,-0.6584,-0.6583,-0.6585,-0.6582,-0.6571,-0.6586,-0.6587,-0.6584,-0.6561,-0.6557,-0.6555,-0.6574,-0.6574,-0.6573,-0.6561,0,-0.6592,-0.6583,-0.6586,-0.6577,-0.6573,-0.6579,-0.6574,-0.6574,-0.6575,-0.6572,-0.6574,-0.657,-0.6576,-0.6575,-0.6572,-0.6573,-0.6567,-0.6574,-0.657,-0.657,-0.657,-0.6553,-0.655,-0.6538,-0.6559,-0.6559,-0.6559,0,-0.6575,-0.6573,-0.6564,-0.6564,-0.6563,-0.6558,-0.6557,-0.6554,-0.6553,-0.6555,-0.6553,-0.6557,-0.6552,-0.6559,-0.6553,-0.6558,-0.6556,-0.6557,-0.6557,-0.6556,-0.6564,-0.6553,-0.6534,-0.6533,-0.6556,-0.6556,-0.6557,0,-0.6562,-0.6557,-0.655,-0.655,-0.655,-0.6547,-0.6547,-0.6547,-0.6546,-0.6544,-0.6543,-0.6541,-0.654,-0.6538,-0.6542,-0.6546,-0.6535,-0.6542,-0.6536,-0.6536,-0.6533,-0.6534,-0.6515,-0.6532,-0.6532,-0.6532,-0.6532,0,-0.6547,-0.6541,-0.6545,-0.6541,-0.6534,-0.6538,-0.6532,-0.6532,-0.6532,-0.6529,-0.6534,-0.6531,-0.6535,-0.6532,-0.6535,-0.6529,-0.6529,-0.653,-0.653,-0.6529,-0.6529,-0.6529,-0.6529,-0.6532,-0.6532,-0.6532,-0.6532,0,-0.6531,-0.6533,-0.6527,-0.6528,-0.6528,-0.6523,-0.6524,-0.6521,-0.6522,-0.6518,-0.6517,-0.652,-0.6517,-0.652,-0.6517,-0.6519,-0.6511,-0.6513,-0.6512,-0.6512,-0.6506,-0.6507,-0.6486,-0.6484,-0.6503,-0.6503,-0.6503,0,-0.6521,-0.6516,-0.6517,-0.6515,-0.6515,-0.6511,-0.651,-0.6514,-0.6512,-0.6511,-0.6508,-0.6505,-0.6504,-0.6499,-0.6501,-0.6499,-0.6501,-0.6493,-0.65,-0.6499,-0.6501,-0.6501,-0.6501,-0.6492,-0.6492,-0.6492,-0.6492,0,-0.6503,-0.6505,-0.6502,-0.65,-0.6498,-0.6497,-0.6496,-0.6494,-0.6498,-0.6496,-0.6493,-0.6491,-0.6488,-0.6486,-0.6484,-0.6485,-0.6489,-0.6489,-0.6488,-0.6487,-0.6486,-0.6487,-0.6508,-0.649,-0.649,-0.649,-0.649,-0.649,-0.649,-0.6487,-0.6487,-0.6484,-0.6484,-0.6483,-0.648,-0.6481,-0.6478,-0.6476,-0.6479,-0.6475,-0.6475,-0.6474,-0.6474,-0.6471,-0.6474,-0.6472,-0.6471,-0.6471,-0.647,-0.6486,-0.6471,-0.6471,-0.6471,-0.6471,-0.6471,0,-0.6474,-0.6474,-0.6471,-0.647,-0.6467,-0.6471,-0.647,-0.6468,-0.6465,-0.6465,-0.6463,-0.646,-0.6457,-0.6459,-0.6457,-0.6455,-0.6456,-0.6454,-0.6454,-0.6454,-0.6467,-0.6469,-0.6453,-0.6453,-0.6453,-0.6453,-0.6453,-0.6453,-0.6465,-0.6459,-0.646,-0.6455,-0.6455,-0.6451,-0.6451,-0.645,-0.645,-0.6446,-0.6444,-0.6445,-0.6445,-0.6444,-0.6442,-0.6442,-0.6441,-0.6438,-0.644,-0.6452,-0.6453,-0.6455,-0.6457,-0.6438,-0.6438,-0.6427,-0.6427,-0.6427]},{"header":{"parameterUnit":"m.s-1","parameterCategory":1,"la1":30.2991,"la2":30.254,"lo1":-89.0895,"lo2":-89.0444,"dy":0.0017,"dx":0.0017,"nx":28,"ny":28,"refTime":"2023-04-27T21:00:00:Z","depth":0,"parameterNumber":3,"parameterNumberName":"V-component_of_WINDS"},"data":[0,0,0,0,0,0,0,0,0,0,0,0,0,0,0,0,0,0,0,0,0,0,0,0,0,0,0,0,0,0,0,0,0,0,0,0,0,0,0,0,0,0,0,0,0,0,0,0,0,0,0,0,0,0,0,0,0,0,4.2876,4.2875,0,4.2828,4.2827,4.2827,4.2748,4.2746,4.2745,4.2743,4.2695,4.2696,4.2696,0,0,0,0,0,0,0,0,0,0,0,0,0,4.29,4.29,4.2876,4.2875,4.2875,4.2828,4.2827,4.2827,4.2748,4.2746,4.2744,4.2743,4.2695,4.2696,4.2696,0,0,0,0,0,0,0,0,0,0,0,0,0,4.2874,4.29,4.2876,4.283,4.2825,4.2828,4.2827,4.2826,4.2748,4.2746,4.2744,4.2742,4.2695,4.2696,4.2696,4.274,0,0,4.2696,4.2696,0,0,0,0,0,0,0,0,4.2876,4.2874,4.2837,4.2833,4.2828,4.2791,4.2818,4.2798,4.2749,4.2777,4.2743,4.2741,4.2729,4.2726,4.2722,4.2738,4.2736,4.2696,4.2696,4.2696,4.2696,0,0,0,0,0,0,0,4.2878,4.2875,4.2857,4.2837,4.2831,4.2811,4.2805,4.2814,4.2766,4.2775,4.2769,4.2764,4.2726,4.2722,4.2721,4.2735,4.2696,4.2696,4.2696,4.2696,4.2784,4.2786,0,0,0,0,0,0,4.2886,4.2877,4.2858,4.2855,4.2847,4.2813,4.2806,4.2805,4.2766,4.2758,4.2766,4.2761,4.2723,4.2721,4.2719,4.2767,4.2696,4.2696,4.2696,4.2782,4.2785,4.2787,0,0,0,0,0,0,4.2887,4.2885,4.286,4.2865,4.286,4.2815,4.2814,4.2805,4.2801,4.2759,4.2751,4.2771,4.2721,4.2718,4.2735,4.2765,4.2696,4.2697,4.2779,4.2783,4.2786,4.2866,0,0,0,0,0,0,4.2888,4.2886,4.2902,4.2866,4.286,4.2878,4.2816,4.2806,4.2802,4.2794,4.2761,4.2754,4.2719,4.2735,4.2735,4.2764,4.2697,4.2776,4.2781,4.2785,4.2861,4.2872,4.2882,0,0,0,0,0,4.2889,4.2928,4.2904,4.2902,4.288,4.288,4.2876,4.2836,4.2804,4.2821,4.2793,4.2755,4.2762,4.2738,4.2737,4.2766,4.2774,4.278,4.2785,4.2856,4.287,4.2882,0,0,0,0,0,0,4.297,4.2922,4.2895,4.2922,4.2906,4.2866,4.2885,4.2851,4.2843,4.2837,4.2787,4.278,4.2803,4.2786,4.276,4.2807,4.2762,4.2767,4.2817,4.2829,4.284,4.2843,4.2697,0,0,0,0,0,4.2991,4.2994,4.2952,4.2981,4.2974,4.2931,4.293,4.29,4.288,4.2873,4.2847,4.283,4.2828,4.2828,4.2824,4.2858,4.2849,4.2877,4.2888,4.2897,4.2902,4.2918,4.2929,4.2804,4.2804,4.2804,0,0,4.3034,4.3008,4.3014,4.2996,4.298,4.2985,4.2926,4.2934,4.2937,4.2874,4.2888,4.2869,4.2846,4.2872,4.2882,4.2858,4.2934,4.2903,4.291,4.2911,4.2924,4.2936,4.2947,4.2807,4.2807,4.2806,0,0,4.3115,4.3097,4.3118,4.3102,4.3077,4.3049,4.3054,4.302,4.3004,4.3017,4.297,4.2973,4.2971,4.2956,4.2949,4.3024,4.2988,4.3024,4.3079,4.3095,4.3105,4.3113,4.314,4.315,4.303,4.303,4.303,0,4.3173,4.3178,4.3133,4.3144,4.3137,4.308,4.3101,4.3088,4.3064,4.3061,4.3035,4.303,4.3011,4.3032,4.305,4.3046,4.305,4.3028,4.3107,4.3115,4.3123,4.3147,4.3157,4.3034,4.3034,4.3033,4.3033,0,4.3249,4.3254,4.3274,4.3251,4.3247,4.3263,4.322,4.3221,4.3191,4.3166,4.3179,4.3154,4.3144,4.3147,4.3118,4.3163,4.3149,4.3116,4.307,4.314,4.3162,4.3171,4.3041,4.3039,4.3038,4.3037,0,0,4.338,4.3332,4.334,4.3329,4.3297,4.33,4.3313,4.3302,4.3304,4.3289,4.3298,4.3297,4.3266,4.3257,4.3226,4.3241,4.3301,4.3205,4.3204,4.3224,4.3349,4.3374,4.3386,4.3277,4.3279,4.328,4.3351,0,4.3455,4.3474,4.3434,4.3463,4.3467,4.3412,4.3423,4.3405,4.3381,4.3381,4.3354,4.3354,4.3313,4.3307,4.3319,4.3292,4.3326,4.3286,4.3285,4.3286,4.3292,4.3397,4.3424,4.3492,4.3359,4.3361,4.3362,0,4.3545,4.3534,4.3563,4.3529,4.3529,4.354,4.3526,4.3526,4.3504,4.3486,4.3476,4.3439,4.345,4.3406,4.3419,4.3393,4.339,4.3376,4.3378,4.3376,4.3328,4.3398,4.3513,4.3523,4.3375,4.3374,4.3373,0,4.3637,4.363,4.3646,4.3638,4.3599,4.3607,4.3592,4.3567,4.3563,4.3551,4.3548,4.3538,4.3532,4.3525,4.3486,4.3458,4.3504,4.3457,4.3489,4.349,4.3501,4.3501,4.3616,4.35,4.35,4.35,4.3499,0,4.3725,4.3745,4.3687,4.3697,4.3718,4.3671,4.3693,4.3671,4.365,4.3655,4.3607,4.3613,4.3561,4.3561,4.3531,4.3546,4.3544,4.3529,4.3521,4.3533,4.3535,4.3531,4.3525,4.3502,4.3502,4.3501,4.3501,0,4.3831,4.3793,4.3807,4.3769,4.3759,4.3776,4.3743,4.3751,4.3723,4.373,4.3729,4.3686,4.3684,4.3644,4.3633,4.3613,4.364,4.3623,4.3647,4.3642,4.3675,4.3673,4.3792,4.3805,4.3681,4.3682,4.3683,0,4.389,4.3904,4.3866,4.3866,4.3852,4.3852,4.3847,4.3802,4.3799,4.3774,4.3785,4.3778,4.377,4.3768,4.3736,4.3727,4.371,4.3752,4.3708,4.372,4.371,4.3709,4.371,4.3762,4.3763,4.3764,4.3765,0,4.3997,4.3977,4.3972,4.396,4.3956,4.3945,4.393,4.3933,4.3882,4.3881,4.3878,4.3872,4.386,4.3854,4.3839,4.3822,4.3786,4.3779,4.3786,4.3799,4.3813,4.3805,4.3672,4.3777,4.3776,4.3775,4.3774,4.3774,4.4081,4.409,4.4065,4.4061,4.4045,4.4033,4.4038,4.4011,4.4007,4.3994,4.3967,4.3967,4.3944,4.392,4.3906,4.3906,4.3884,4.3894,4.3896,4.39,4.3906,4.3813,4.3903,4.3903,4.3902,4.3902,4.3902,0,4.4185,4.4166,4.4163,4.4144,4.4141,4.4106,4.4088,4.4087,4.4088,4.407,4.4063,4.4058,4.4051,4.4019,4.4008,4.4014,4.3997,4.4013,4.4012,4.4008,4.3927,4.3922,4.4027,4.4027,4.4027,4.4027,4.4027,4.4027,4.4239,4.4254,4.4231,4.4237,4.4217,4.4217,4.421,4.4198,4.4183,4.418,4.4174,4.4152,4.4127,4.4115,4.4107,4.4097,4.4096,4.4117,4.4102,4.4026,4.4014,4.4003,4.3998,4.4117,4.4118,4.4184,4.4185,4.4185]}]]